RS-44 & BREEZE-KM R/B (44909 NORAD) Tracking and Keplerian Element Data

This shows tracking and keplerian element data for the satellite.

Feedback or suggestion? Click here.




ElementValue
Catalog44909
NameRS-44 & BREEZE-KM R/B
Epoch Orbit2464
Epoch Day188.66970408
Epoch Year2020
RAAN342.5421
Inclination82.522
Eccentricity0.0217435
Argument of Perigee181.2962
Mean Anonmoly178.7604
Mean Motion12.79708147
Decay Rate3E-08
L11 44909U 19096E 20188.66970408 .00000003 00000-0 -34179-4 0 9992
L22 44909 82.5220 342.5421 0217435 181.2962 178.7604 12.79708147 24644

Live tracking and technical data element details for RS-44 & BREEZE-KM R/B (NORAD 44909). RS-44 & BREEZE-KM R/B can be tracked NOW for your location showing map with azimuth and elevation plus other details from your city location.

Track the satellite on the map from your city or location and see movement details for azimuth, elevation, latitude, longitude, range, height, and movement on the map or in text.







IsCatalogInMostPopularTable: catalog: 44909, numindb: 602
Update: records affected: 1



GetName: 44909 RS-44 & BREEZE-KM R/B

Hit Count: updated at: Wed, 08 Jul 2020 05:04:15 GMT